Oakland, MD

7:24 PM EDT on April 24, 2017 (GMT -0400)
Oakland

Weather History for K2G4 - December, 2012

Change the Weather History Date:

Thursday, December 6, 2012

  Actual Average (KMGW) Record (KMGW)
Temperature  
Mean Temperature 29 °F -  
Max Temperature 37 °F 44 °F 73 °F (1998)
Min Temperature 21 °F 28 °F 9 °F (2007)
Degree Days  
Heating Degree Days 36    
Moisture  
Dew Point 25 °F    
Average Humidity 84    
Maximum Humidity 100    
Minimum Humidity 65    
Precipitation  
Precipitation 0.00 in - - ()
Sea Level Pressure  
Sea Level Pressure 30.15 in    
Wind  
Wind Speed 7 mph (SE)    
Max Wind Speed 16 mph    
Max Gust Speed 20 mph    
Visibility 10 miles    
Events      
Averages and records for this station are not official NWS values.
T = Trace of Precipitation, MM = Missing Value Source: NWS Daily Summary

Daily Weather History Graph

Daily Weather History Graph

Search for Another Location

Airport or City:

Trip Planner

Search our weather history database for the weather conditions in past years. The results will help you decide how hot, cold, wet, or windy it might be!

Date:

Astronomy

Dec. 06, 2012 Rise Set
Actual Time 7:24 AM EST 4:53 PM EST
Civil Twilight 6:53 AM EST 5:23 PM EST
Nautical Twilight 6:20 AM EST 5:56 PM EST
Astronomical Twilight 5:47 AM EST 6:29 PM EST
Moon No Moon Rise 12:17 PM EST (12/6)
Length of Visible Light 10h 29m
Length of Day
9h 29m
Waning Gibbous, 49% of the Moon is Illuminated
Dec 6
Waning Gibbous
Dec 13
New
Dec 20
First Quarter
Dec 28
Full
Jan 4
Last Quarter

Hourly Weather History & Observations

Time (EST) Temp. Windchill Dew Point Humidity Pressure Visibility Wind Dir Wind Speed Gust Speed Precip Events Conditions
12:05 AM 23.0 °F - 21.2 °F 93% 30.22 in 10.0 mi Calm Calm - N/A   Clear
12:30 AM 23.0 °F - 21.2 °F 93% 30.21 in 10.0 mi Calm Calm - N/A   Clear
12:50 AM 21.2 °F 12.6 °F 21.2 °F 100% 30.22 in 10.0 mi SSW 6.9 mph - N/A   Clear
1:10 AM 21.2 °F 16.4 °F 21.2 °F 100% 30.22 in 10.0 mi South 3.5 mph - N/A   Clear
1:30 AM 23.0 °F 18.4 °F 23.0 °F 100% 30.21 in 10.0 mi SW 3.5 mph - N/A   Clear
1:55 AM 23.0 °F 18.4 °F 21.2 °F 93% 30.22 in 10.0 mi NW 3.5 mph - N/A   Clear
2:15 AM 23.0 °F - 21.2 °F 93% 30.22 in 10.0 mi Calm Calm - N/A   Clear
2:35 AM 23.0 °F - 21.2 °F 93% 30.22 in 10.0 mi Calm Calm - N/A   Clear
2:55 AM 23.0 °F - 21.2 °F 93% 30.21 in 10.0 mi Calm Calm - N/A   Clear
3:20 AM 24.8 °F - 21.2 °F 86% 30.21 in 10.0 mi Calm Calm - N/A   Clear
3:40 AM 24.8 °F - 21.2 °F 86% 30.21 in 10.0 mi Calm Calm - N/A   Clear
4:00 AM 23.0 °F 18.4 °F 21.2 °F 93% 30.20 in 10.0 mi SSE 3.5 mph - N/A   Clear
4:20 AM 21.2 °F 16.4 °F 21.2 °F 100% 30.19 in 10.0 mi South 3.5 mph - N/A   Clear
4:45 AM 21.2 °F 16.4 °F 21.2 °F 100% 30.19 in 10.0 mi SSE 3.5 mph - N/A   Clear
5:45 AM 21.2 °F 13.6 °F 21.2 °F 100% 30.19 in 10.0 mi ESE 5.8 mph - N/A   Clear
6:10 AM 21.2 °F 12.6 °F 21.2 °F 100% 30.20 in 10.0 mi ESE 6.9 mph - N/A   Clear
6:30 AM 21.2 °F 11.7 °F 21.2 °F 100% 30.19 in 10.0 mi ESE 8.1 mph - N/A   Clear
6:50 AM 21.2 °F 10.9 °F 21.2 °F 100% 30.20 in 10.0 mi SE 9.2 mph - N/A   Clear
7:10 AM 21.2 °F 8.9 °F 21.2 °F 100% 30.20 in 10.0 mi SE 12.7 mph - N/A   Clear
7:35 AM 21.2 °F 7.8 °F 21.2 °F 100% 30.19 in 10.0 mi SE 15.0 mph - N/A   Clear
7:55 AM 23.0 °F 10.1 °F 21.2 °F 93% 30.19 in 10.0 mi SE 15.0 mph - N/A   Clear
8:15 AM 23.0 °F 11.1 °F 23.0 °F 100% 30.20 in 10.0 mi SE 12.7 mph - N/A   Clear
9:00 AM 26.6 °F 16.2 °F 23.0 °F 86% 30.20 in 10.0 mi SE 11.5 mph - N/A   Clear
9:20 AM 28.4 °F 17.5 °F 24.8 °F 86% 30.20 in 10.0 mi SE 13.8 mph 19.6 mph N/A   Clear
10:00 AM 30.2 °F 19.3 °F 26.6 °F 86% 30.20 in 10.0 mi SE 15.0 mph - N/A   Clear
10:25 AM 32.0 °F 21.6 °F 26.6 °F 80% 30.19 in 10.0 mi SE 15.0 mph - N/A   Clear
10:45 AM 32.0 °F 21.2 °F 26.6 °F 80% 30.19 in 10.0 mi SE 16.1 mph - N/A   Clear
11:05 AM 32.0 °F 23.0 °F 26.6 °F 80% 30.19 in 10.0 mi SE 11.5 mph 17.3 mph N/A   Clear
11:25 AM 32.0 °F 21.2 °F 26.6 °F 80% 30.17 in 10.0 mi SE 16.1 mph - N/A   Clear
11:50 AM 33.8 °F 24.3 °F 26.6 °F 75% 30.16 in 10.0 mi SE 13.8 mph - N/A   Clear
12:10 PM 33.8 °F 24.3 °F 26.6 °F 75% 30.15 in 10.0 mi SE 13.8 mph - N/A   Clear
12:30 PM 35.6 °F 27.1 °F 26.6 °F 70% 30.13 in 10.0 mi SE 12.7 mph - N/A   Clear
12:50 PM 35.6 °F 27.1 °F 26.6 °F 70% 30.13 in 10.0 mi SE 12.7 mph - N/A   Clear
1:15 PM 37.4 °F 29.8 °F 26.6 °F 65% 30.12 in 10.0 mi SE 11.5 mph - N/A   Clear
1:35 PM 37.4 °F 28.9 °F 26.6 °F 65% 30.11 in 10.0 mi SE 13.8 mph - N/A   Clear
1:55 PM 37.4 °F 28.9 °F 26.6 °F 65% 30.11 in 10.0 mi SE 13.8 mph - N/A   Clear
2:15 PM 35.6 °F 26.6 °F 26.6 °F 70% 30.10 in 10.0 mi SE 13.8 mph - N/A   Clear
2:40 PM 35.6 °F 26.6 °F 26.6 °F 70% 30.10 in 10.0 mi SE 13.8 mph - N/A   Clear
3:00 PM 35.6 °F 25.9 °F 26.6 °F 70% 30.10 in 10.0 mi SE 16.1 mph 19.6 mph N/A   Clear
3:20 PM 33.8 °F 24.8 °F 26.6 °F 75% 30.09 in 10.0 mi SE 12.7 mph - N/A   Clear
3:40 PM 33.8 °F 23.9 °F 26.6 °F 75% 30.09 in 10.0 mi SE 15.0 mph - N/A   Clear
4:05 PM 33.8 °F 24.8 °F 26.6 °F 75% 30.10 in 10.0 mi SE 12.7 mph - N/A   Clear
4:45 PM 32.0 °F 22.5 °F 26.6 °F 80% 30.10 in 10.0 mi SE 12.7 mph - N/A   Clear
5:05 PM 32.0 °F 22.1 °F 26.6 °F 80% 30.09 in 10.0 mi SE 13.8 mph - N/A   Clear
5:30 PM 32.0 °F 22.5 °F 26.6 °F 80% 30.10 in 10.0 mi SE 12.7 mph - N/A   Clear
5:50 PM 32.0 °F 22.1 °F 26.6 °F 80% 30.09 in 10.0 mi SE 13.8 mph - N/A   Clear
6:10 PM 32.0 °F 21.6 °F 26.6 °F 80% 30.09 in 10.0 mi SE 15.0 mph - N/A   Clear
6:30 PM 32.0 °F 22.5 °F 26.6 °F 80% 30.08 in 10.0 mi SE 12.7 mph - N/A   Clear
6:55 PM 32.0 °F 22.1 °F 26.6 °F 80% 30.08 in 10.0 mi SE 13.8 mph - N/A   Clear
7:15 PM 32.0 °F 23.0 °F 26.6 °F 80% 30.09 in 10.0 mi SE 11.5 mph - N/A   Clear
7:55 PM 32.0 °F 23.0 °F 26.6 °F 80% 30.08 in 10.0 mi SE 11.5 mph - N/A   Clear
8:20 PM 32.0 °F 23.0 °F 26.6 °F 80% 30.08 in 10.0 mi SE 11.5 mph - N/A   Clear
8:40 PM 32.0 °F 23.6 °F 26.6 °F 80% 30.08 in 10.0 mi SE 10.4 mph - N/A   Clear
9:20 PM 32.0 °F 24.2 °F 26.6 °F 80% 30.08 in 10.0 mi SE 9.2 mph - N/A   Clear
9:45 PM 32.0 °F 24.2 °F 26.6 °F 80% 30.08 in 10.0 mi SSE 9.2 mph - N/A   Clear
10:05 PM 32.0 °F 24.2 °F 26.6 °F 80% 30.08 in 10.0 mi SSE 9.2 mph - N/A   Mostly Cloudy
10:25 PM 32.0 °F 24.2 °F 28.4 °F 87% 30.07 in 10.0 mi SSE 9.2 mph - N/A   Overcast
10:45 PM 33.8 °F 25.8 °F 30.2 °F 87% 30.07 in 10.0 mi South 10.4 mph - N/A   Overcast
11:10 PM 37.4 °F 30.3 °F 32.0 °F 81% 30.06 in 10.0 mi South 10.4 mph - N/A   Overcast
11:30 PM 37.4 °F 30.8 °F 32.0 °F 81% 30.06 in 10.0 mi South 9.2 mph - N/A   Overcast
11:50 PM 37.4 °F 31.4 °F 32.0 °F 81% 30.05 in 10.0 mi South 8.1 mph - N/A   Overcast